QPF
0.00 0.00 0.00 0.00 0.00 0.00 0.00 0.00 0.00 0.00 0.00 0.00 0.00 0.00 0.00 0.00 0.00 0.00 0.00 0.00 0.00 0.00 0.00 0.00 0.00 0.00 0.00 0.01 0.01 0.01 0.01 0.01 0.01 0.01 0.01 0.01 0.01 0.01 0.01 0.00 0.00 0.00 0.00
0.00 0.00 0.00 0.00 0.00 0.00 0.00 0.00 0.00 0.00 0.00 0.00 0.00 0.00 0.00 0.00 0.00 0.00 0.00 0.00 0.00 0.00 0.00 0.00 0.00 0.00 0.00 0.00 0.01 0.01 0.01 0.01 0.01 0.01 0.01 0.01 0.01 0.01 0.01 0.01 0.01 0.01 0.00
0.00 0.00 0.00 0.00 0.00 0.00 0.00 0.00 0.00 0.00 0.00 0.00 0.00 0.00 0.00 0.00 0.00 0.00 0.00 0.00 0.00 0.00 0.00 0.00 0.00 0.00 0.00 0.00 0.00 0.01 0.01 0.01 0.01 0.01 0.01 0.01 0.01 0.01 0.01 0.01 0.01 0.01 0.01
0.00 0.00 0.00 0.00 0.00 0.00 0.00 0.00 0.00 0.00 0.00 0.00 0.00 0.00 0.00 0.00 0.00 0.00 0.00 0.00 0.00 0.00 0.00 0.00 0.00 0.00 0.00 0.00 0.00 0.00 0.00 0.00 0.01 0.01 0.01 0.01 0.01 0.01 0.01 0.01 0.01 0.01 0.01
0.00 0.00 0.00 0.00 0.00 0.00 0.00 0.00 0.00 0.00 0.00 0.00 0.00 0.00 0.00 0.00 0.00 0.00 0.00 0.00 0.00 0.00 0.00 0.00 0.00 0.00 0.00 0.00 0.00 0.00 0.00 0.00 0.00 0.01 0.01 0.01 0.01 0.02 0.02 0.02 0.01 0.02 0.02
0.00 0.00 0.00 0.00 0.00 0.00 0.00 0.00 0.00 0.00 0.00 0.00 0.00 0.00 0.00 0.00 0.00 0.00 0.00 0.00 0.00 0.00 0.00 0.00 0.00 0.00 0.00 0.00 0.00 0.00 0.00 0.00 0.00 0.01 0.01 0.02 0.02 0.02 0.02 0.02 0.02 0.02 0.02
0.00 0.00 0.00 0.00 0.00 0.00 0.00 0.00 0.00 0.00 0.00 0.00 0.00 0.00 0.00 0.00 0.00 0.00 0.00 0.00 0.00 0.00 0.00 0.00 0.00 0.00 0.00 0.00 0.00 0.00 0.00 0.00 0.00 0.01 0.01 0.02 0.02 0.02 0.02 0.02 0.02 0.02 0.03
0.00 0.00 0.00 0.00 0.00 0.00 0.00 0.00 0.00 0.00 0.00 0.00 0.00 0.00 0.00 0.00 0.00 0.00 0.00 0.00 0.00 0.00 0.00 0.00 0.00 0.00 0.00 0.00 0.00 0.00 0.00 0.00 0.00 0.01 0.01 0.02 0.02 0.03 0.03 0.03 0.03 0.03 0.04
0.00 0.00 0.00 0.00 0.00 0.00 0.00 0.00 0.00 0.00 0.00 0.00 0.00 0.00 0.00 0.00 0.00 0.00 0.00 0.00 0.00 0.00 0.00 0.00 0.00 0.00 0.00 0.00 0.00 0.00 0.00 0.00 0.00 0.01 0.01 0.02 0.02 0.03 0.04 0.04 0.05 0.05 0.06
0.00 0.00 0.00 0.00 0.00 0.00 0.00 0.00 0.00 0.00 0.00 0.00 0.00 0.00 0.00 0.00 0.00 0.00 0.00 0.00 0.00 0.00 0.00 0.00 0.00 0.00 0.00 0.00 0.00 0.00 0.00 0.00 0.00 0.01 0.01 0.02 0.03 0.04 0.05 0.06 0.06 0.07 0.08
0.00 0.00 0.00 0.00 0.00 0.00 0.00 0.00 0.00 0.00 0.00 0.00 0.00 0.00 0.00 0.00 0.00 0.00 0.00 0.00 0.00 0.00 0.00 0.00 0.00 0.00 0.00 0.00 0.00 0.00 0.00 0.00 0.00 0.00 0.01 0.02 0.03 0.04 0.05 0.05 0.06 0.07 0.07
0.00 0.00 0.00 0.00 0.00 0.00 0.00 0.00 0.00 0.00 0.00 0.00 0.00 0.00 0.00 0.00 0.00 0.00 0.00 0.00 0.00 0.00 0.00 0.00 0.00 0.00 0.00 0.00 0.00 0.00 0.00 0.00 0.00 0.00 0.01 0.01 0.02 0.02 0.03 0.04 0.04 0.05 0.05
0.00 0.00 0.00 0.00 0.00 0.00 0.00 0.00 0.00 0.00 0.00 0.00 0.00 0.00 0.00 0.00 0.00 0.00 0.00 0.00 0.00 0.00 0.00 0.00 0.00 0.00 0.00 0.00 0.00 0.00 0.00 0.00 0.00 0.00 0.00 0.01 0.01 0.02 0.02 0.02 0.03 0.04 0.05
0.00 0.00 0.00 0.00 0.00 0.00 0.00 0.00 0.00 0.00 0.00 0.00 0.00 0.00 0.00 0.00 0.00 0.00 0.00 0.00 0.00 0.00 0.00 0.00 0.00 0.00 0.00 0.00 0.00 0.00 0.00 0.00 0.00 0.00 0.00 0.00 0.01 0.01 0.02 0.02 0.03 0.03 0.04
0.00 0.00 0.00 0.00 0.00 0.00 0.00 0.00 0.00 0.00 0.00 0.00 0.00 0.00 0.00 0.00 0.00 0.00 0.00 0.00 0.00 0.00 0.00 0.00 0.00 0.00 0.00 0.00 0.00 0.00 0.00 0.00 0.00 0.00 0.00 0.01 0.01 0.02 0.02 0.03 0.03 0.03 0.03
0.00 0.00 0.00 0.00 0.00 0.00 0.00 0.00 0.00 0.00 0.00 0.00 0.00 0.00 0.00 0.00 0.00 0.00 0.00 0.00 0.00 0.00 0.00 0.00 0.00 0.00 0.00 0.00 0.00 0.00 0.00 0.00 0.00 0.00 0.00 0.00 0.01 0.01 0.02 0.03 0.03 0.03 0.04
0.00 0.00 0.00 0.00 0.00 0.00 0.00 0.00 0.00 0.00 0.00 0.00 0.00 0.00 0.01 0.01 0.01 0.01 0.00 0.00 0.00 0.00 0.00 0.00 0.00 0.00 0.00 0.00 0.00 0.00 0.00 0.00 0.00 0.00 0.00 0.00 0.01 0.01 0.02 0.03 0.04 0.04 0.04
0.00 0.00 0.00 0.00 0.00 0.00 0.00 0.00 0.00 0.00 0.01 0.01 0.01 0.01 0.01 0.01 0.01 0.01 0.00 0.00 0.00 0.00 0.00 0.00 0.00 0.00 0.00 0.00 0.00 0.00 0.00 0.00 0.00 0.00 0.00 0.01 0.01 0.02 0.03 0.04 0.04 0.05 0.05
0.00 0.00 0.00 0.00 0.00 0.00 0.00 0.00 0.00 0.00 0.01 0.01 0.01 0.01 0.01 0.01 0.01 0.01 0.01 0.00 0.00 0.00 0.00 0.01 0.00 0.00 0.00 0.00 0.00 0.00 0.00 0.00 0.00 0.00 0.00 0.01 0.01 0.01 0.02 0.03 0.04 0.04 0.04
0.00 0.00 0.00 0.00 0.00 0.00 0.00 0.00 0.00 0.00 0.01 0.01 0.01 0.01 0.01 0.01 0.01 0.01 0.01 0.01 0.00 0.00 0.00 0.01 0.01 0.00 0.00 0.00 0.01 0.01 0.01 0.00 0.00 0.00 0.00 0.00 0.00 0.01 0.01 0.02 0.02 0.03 0.03
0.00 0.00 0.00 0.00 0.00 0.00 0.00 0.00 0.00 0.00 0.01 0.01 0.01 0.01 0.01 0.01 0.01 0.01 0.01 0.01 0.01 0.01 0.02 0.02 0.02 0.01 0.01 0.01 0.01 0.01 0.01 0.01 0.00 0.00 0.00 0.00 0.00 0.00 0.00 0.00 0.00 0.01 0.01
0.00 0.00 0.00 0.00 0.00 0.00 0.00 0.00 0.00 0.00 0.01 0.01 0.01 0.01 0.01 0.01 0.01 0.02 0.02 0.02 0.02 0.03 0.03 0.03 0.03 0.02 0.01 0.01 0.01 0.01 0.01 0.02 0.01 0.00 0.00 0.00 0.00 0.00 0.00 0.00 0.00 0.01 0.01
0.00 0.00 0.00 0.00 0.00 0.00 0.00 0.00 0.01 0.01 0.01 0.01 0.01 0.01 0.01 0.01 0.01 0.02 0.02 0.03 0.03 0.03 0.03 0.03 0.04 0.02 0.01 0.01 0.01 0.02 0.02 0.02 0.02 0.01 0.01 0.01 0.00 0.00 0.00 0.00 0.00 0.01 0.02
0.00 0.00 0.00 0.00 0.00 0.00 0.00 0.01 0.02 0.02 0.02 0.01 0.01 0.01 0.02 0.01 0.01 0.02 0.02 0.02 0.01 0.01 0.01 0.01 0.02 0.01 0.01 0.01 0.02 0.05 0.06 0.05 0.02 0.01 0.01 0.02 0.01 0.00 0.00 0.00 0.00 0.01 0.02
0.00 0.00 0.00 0.00 0.00 0.00 0.00 0.01 0.02 0.03 0.03 0.01 0.01 0.01 0.02 0.02 0.01 0.02 0.04 0.02 0.01 0.01 0.01 0.01 0.02 0.02 0.02 0.03 0.04 0.06 0.06 0.04 0.02 0.00 0.00 0.01 0.01 0.01 0.00 0.00 0.00 0.01 0.02
0.00 0.00 0.00 0.00 0.00 0.00 0.00 0.01 0.01 0.03 0.03 0.02 0.02 0.02 0.01 0.02 0.01 0.02 0.04 0.03 0.02 0.01 0.01 0.01 0.01 0.01 0.01 0.00 0.01 0.02 0.02 0.03 0.02 0.01 0.00 0.01 0.02 0.02 0.03 0.01 0.02 0.03 0.02
MSLP
1024.95 1025.32 1025.62 1025.85 1026.03 1026.17 1026.28 1026.37 1026.47 1026.55 1026.62 1026.67 1026.71 1026.73 1026.75 1026.77 1026.80 1026.84 1026.89 1026.95 1026.99 1026.99 1026.94 1026.83 1026.66 1026.43 1026.17 1025.90 1025.63 1025.39 1025.18 1025.00 1024.85 1024.71 1024.56 1024.40 1024.21 1023.99 1023.75 1023.48 1023.20 1022.90 1022.59
1024.26 1024.66 1024.98 1025.24 1025.44 1025.60 1025.73 1025.86 1025.98 1026.11 1026.23 1026.34 1026.42 1026.48 1026.51 1026.53 1026.55 1026.56 1026.59 1026.63 1026.67 1026.69 1026.67 1026.60 1026.48 1026.29 1026.06 1025.79 1025.52 1025.25 1025.00 1024.78 1024.59 1024.42 1024.26 1024.10 1023.91 1023.70 1023.46 1023.20 1022.91 1022.61 1022.30
1023.45 1023.87 1024.24 1024.54 1024.78 1024.99 1025.17 1025.34 1025.52 1025.71 1025.89 1026.05 1026.17 1026.26 1026.30 1026.31 1026.29 1026.26 1026.25 1026.24 1026.26 1026.28 1026.29 1026.27 1026.20 1026.07 1025.88 1025.64 1025.37 1025.09 1024.82 1024.56 1024.33 1024.13 1023.94 1023.75 1023.56 1023.34 1023.10 1022.83 1022.54 1022.24 1021.93
1022.54 1023.00 1023.42 1023.77 1024.08 1024.34 1024.59 1024.83 1025.07 1025.32 1025.56 1025.77 1025.94 1026.05 1026.09 1026.08 1026.02 1025.94 1025.87 1025.82 1025.80 1025.81 1025.84 1025.86 1025.85 1025.78 1025.65 1025.45 1025.20 1024.92 1024.63 1024.34 1024.07 1023.82 1023.60 1023.37 1023.15 1022.92 1022.67 1022.40 1022.11 1021.81 1021.50
1021.58 1022.07 1022.54 1022.96 1023.33 1023.66 1023.97 1024.28 1024.58 1024.89 1025.19 1025.45 1025.66 1025.79 1025.84 1025.81 1025.71 1025.59 1025.46 1025.37 1025.32 1025.32 1025.35 1025.40 1025.44 1025.43 1025.35 1025.21 1024.99 1024.72 1024.42 1024.11 1023.80 1023.51 1023.24 1022.97 1022.72 1022.46 1022.19 1021.90 1021.61 1021.31 1021.01
1020.59 1021.11 1021.61 1022.08 1022.52 1022.92 1023.29 1023.65 1024.01 1024.37 1024.72 1025.02 1025.27 1025.42 1025.48 1025.45 1025.34 1025.19 1025.03 1024.90 1024.82 1024.81 1024.85 1024.92 1024.99 1025.02 1024.99 1024.89 1024.70 1024.45 1024.15 1023.81 1023.48 1023.15 1022.83 1022.53 1022.24 1021.95 1021.66 1021.36 1021.06 1020.75 1020.45
1019.60 1020.12 1020.65 1021.16 1021.64 1022.08 1022.50 1022.90 1023.30 1023.70 1024.07 1024.41 1024.69 1024.88 1024.97 1024.96 1024.87 1024.71 1024.55 1024.41 1024.32 1024.29 1024.32 1024.40 1024.48 1024.53 1024.53 1024.45 1024.29 1024.05 1023.75 1023.42 1023.06 1022.71 1022.37 1022.04 1021.72 1021.40 1021.09 1020.77 1020.46 1020.14 1019.82
1018.62 1019.13 1019.65 1020.18 1020.68 1021.15 1021.59 1022.01 1022.43 1022.84 1023.23 1023.60 1023.91 1024.14 1024.28 1024.31 1024.26 1024.15 1024.01 1023.87 1023.78 1023.75 1023.77 1023.83 1023.90 1023.95 1023.95 1023.88 1023.72 1023.49 1023.21 1022.87 1022.52 1022.16 1021.80 1021.46 1021.12 1020.79 1020.46 1020.13 1019.80 1019.47 1019.14
1017.66 1018.13 1018.65 1019.16 1019.66 1020.13 1020.57 1020.99 1021.40 1021.80 1022.20 1022.58 1022.92 1023.20 1023.39 1023.49 1023.51 1023.46 1023.37 1023.28 1023.20 1023.16 1023.16 1023.19 1023.23 1023.25 1023.23 1023.14 1022.98 1022.76 1022.49 1022.17 1021.83 1021.48 1021.13 1020.79 1020.45 1020.12 1019.78 1019.44 1019.10 1018.76 1018.41
1016.72 1017.15 1017.63 1018.12 1018.60 1019.05 1019.46 1019.86 1020.25 1020.63 1021.01 1021.40 1021.76 1022.07 1022.33 1022.51 1022.62 1022.65 1022.63 1022.59 1022.54 1022.50 1022.48 1022.47 1022.47 1022.44 1022.37 1022.26 1022.09 1021.87 1021.61 1021.32 1021.00 1020.68 1020.35 1020.03 1019.71 1019.38 1019.04 1018.70 1018.35 1018.00 1017.64
1015.81 1016.18 1016.62 1017.07 1017.52 1017.93 1018.32 1018.68 1019.03 1019.38 1019.74 1020.11 1020.48 1020.83 1021.15 1021.41 1021.60 1021.72 1021.79 1021.81 1021.80 1021.77 1021.73 1021.68 1021.62 1021.54 1021.43 1021.29 1021.10 1020.88 1020.63 1020.37 1020.08 1019.80 1019.50 1019.20 1018.89 1018.57 1018.25 1017.90 1017.55 1017.19 1016.82
1014.89 1015.23 1015.62 1016.03 1016.44 1016.83 1017.18 1017.50 1017.81 1018.12 1018.44 1018.79 1019.16 1019.53 1019.89 1020.22 1020.49 1020.71 1020.85 1020.94 1020.97 1020.96 1020.91 1020.84 1020.73 1020.61 1020.45 1020.28 1020.08 1019.85 1019.62 1019.37 1019.12 1018.86 1018.60 1018.32 1018.02 1017.72 1017.39 1017.05 1016.69 1016.32 1015.95
1013.99 1014.27 1014.62 1015.00 1015.38 1015.73 1016.05 1016.34 1016.61 1016.88 1017.17 1017.49 1017.85 1018.23 1018.62 1019.00 1019.34 1019.63 1019.85 1020.00 1020.08 1020.10 1020.06 1019.97 1019.84 1019.68 1019.50 1019.29 1019.08 1018.85 1018.62 1018.39 1018.16 1017.91 1017.66 1017.39 1017.10 1016.80 1016.47 1016.12 1015.76 1015.39 1015.02
1013.07 1013.32 1013.63 1013.98 1014.33 1014.66 1014.96 1015.22 1015.46 1015.70 1015.96 1016.25 1016.59 1016.97 1017.37 1017.79 1018.18 1018.54 1018.82 1019.04 1019.17 1019.22 1019.20 1019.12 1018.98 1018.81 1018.60 1018.38 1018.16 1017.92 1017.69 1017.45 1017.21 1016.97 1016.70 1016.43 1016.13 1015.81 1015.47 1015.11 1014.75 1014.37 1014.00
1012.15 1012.36 1012.64 1012.96 1013.29 1013.61 1013.89 1014.13 1014.36 1014.57 1014.81 1015.08 1015.41 1015.79 1016.20 1016.64 1017.07 1017.47 1017.81 1018.08 1018.26 1018.35 1018.36 1018.30 1018.17 1018.00 1017.79 1017.56 1017.32 1017.07 1016.82 1016.56 1016.30 1016.02 1015.73 1015.42 1015.09 1014.74 1014.38 1014.01 1013.63 1013.25 1012.88
1011.24 1011.41 1011.65 1011.94 1012.25 1012.54 1012.82 1013.06 1013.28 1013.49 1013.72 1014.00 1014.32 1014.69 1015.12 1015.57 1016.03 1016.46 1016.84 1017.15 1017.37 1017.51 1017.55 1017.52 1017.41 1017.25 1017.05 1016.82 1016.56 1016.29 1016.00 1015.70 1015.38 1015.05 1014.71 1014.35 1013.98 1013.60 1013.21 1012.82 1012.43 1012.04 1011.65
1010.34 1010.46 1010.66 1010.91 1011.19 1011.47 1011.73 1011.98 1012.21 1012.43 1012.68 1012.97 1013.31 1013.70 1014.14 1014.61 1015.08 1015.53 1015.94 1016.27 1016.53 1016.69 1016.77 1016.76 1016.68 1016.53 1016.34 1016.10 1015.82 1015.52 1015.18 1014.83 1014.45 1014.05 1013.64 1013.22 1012.79 1012.37 1011.95 1011.54 1011.13 1010.73 1010.34
1009.49 1009.55 1009.69 1009.88 1010.12 1010.37 1010.63 1010.88 1011.13 1011.38 1011.67 1011.99 1012.36 1012.78 1013.24 1013.72 1014.21 1014.67 1015.08 1015.42 1015.69 1015.87 1015.97 1015.98 1015.92 1015.79 1015.59 1015.35 1015.05 1014.71 1014.33 1013.91 1013.46 1012.99 1012.51 1012.03 1011.55 1011.09 1010.64 1010.21 1009.78 1009.37 1008.96
1008.69 1008.68 1008.74 1008.88 1009.06 1009.28 1009.51 1009.77 1010.04 1010.33 1010.66 1011.03 1011.44 1011.90 1012.39 1012.89 1013.38 1013.83 1014.24 1014.57 1014.84 1015.01 1015.11 1015.13 1015.08 1014.96 1014.77 1014.52 1014.20 1013.83 1013.40 1012.93 1012.42 1011.88 1011.34 1010.81 1010.29 1009.79 1009.32 1008.86 1008.42 1007.99 1007.56
1007.96 1007.87 1007.85 1007.91 1008.03 1008.19 1008.40 1008.65 1008.94 1009.27 1009.64 1010.07 1010.53 1011.03 1011.55 1012.06 1012.55 1012.99 1013.37 1013.68 1013.92 1014.07 1014.16 1014.17 1014.13 1014.01 1013.83 1013.57 1013.25 1012.86 1012.41 1011.89 1011.34 1010.76 1010.17 1009.60 1009.04 1008.52 1008.02 1007.55 1007.09 1006.64 1006.18
1007.30 1007.13 1007.03 1007.01 1007.05 1007.15 1007.32 1007.55 1007.84 1008.20 1008.62 1009.09 1009.60 1010.14 1010.68 1011.19 1011.67 1012.09 1012.43 1012.70 1012.89 1013.02 1013.09 1013.09 1013.04 1012.94 1012.77 1012.53 1012.21 1011.82 1011.36 1010.83 1010.25 1009.65 1009.04 1008.44 1007.87 1007.32 1006.81 1006.31 1005.82 1005.34 1004.84
1006.71 1006.47 1006.29 1006.18 1006.14 1006.17 1006.29 1006.49 1006.77 1007.14 1007.58 1008.08 1008.62 1009.18 1009.73 1010.25 1010.70 1011.08 1011.38 1011.61 1011.76 1011.85 1011.89 1011.89 1011.85 1011.76 1011.62 1011.41 1011.12 1010.76 1010.31 1009.79 1009.22 1008.61 1007.99 1007.38 1006.79 1006.23 1005.69 1005.17 1004.64 1004.11 1003.56
1006.18 1005.88 1005.63 1005.44 1005.32 1005.28 1005.33 1005.49 1005.74 1006.09 1006.53 1007.04 1007.60 1008.16 1008.70 1009.20 1009.62 1009.96 1010.22 1010.40 1010.52 1010.58 1010.61 1010.62 1010.60 1010.54 1010.44 1010.28 1010.04 1009.71 1009.30 1008.81 1008.26 1007.66 1007.05 1006.43 1005.83 1005.25 1004.68 1004.11 1003.54 1002.95 1002.34
1005.69 1005.34 1005.04 1004.78 1004.59 1004.48 1004.47 1004.56 1004.77 1005.08 1005.49 1005.99 1006.52 1007.07 1007.59 1008.05 1008.45 1008.75 1008.97 1009.12 1009.22 1009.27 1009.31 1009.33 1009.35 1009.34 1009.29 1009.18 1009.00 1008.73 1008.37 1007.92 1007.40 1006.82 1006.21 1005.59 1004.97 1004.36 1003.75 1003.13 1002.50 1001.84 1001.16
1005.23 1004.86 1004.52 1004.21 1003.96 1003.78 1003.70 1003.72 1003.86 1004.12 1004.49 1004.94 1005.43 1005.94 1006.43 1006.86 1007.22 1007.50 1007.70 1007.83 1007.93 1007.99 1008.05 1008.11 1008.17 1008.22 1008.23 1008.18 1008.06 1007.85 1007.53 1007.12 1006.62 1006.06 1005.46 1004.83 1004.19 1003.54 1002.87 1002.19 1001.48 1000.75 999.98
1004.78 1004.40 1004.04 1003.70 1003.40 1003.17 1003.02 1002.97 1003.04 1003.24 1003.54 1003.93 1004.37 1004.83 1005.27 1005.67 1006.01 1006.27 1006.47 1006.61 1006.72 1006.82 1006.92 1007.03 1007.13 1007.23 1007.30 1007.30 1007.22 1007.05 1006.77 1006.38 1005.90 1005.34 1004.74 1004.09 1003.42 1002.72 1002.01 1001.26 1000.47 999.65 998.81
Thickness
5627 5623 5619 5616 5612 5608 5605 5602 5600 5598 5595 5592 5589 5586 5584 5581 5578 5575 5572 5569 5567 5565 5564 5563 5562 5562 5562 5562 5563 5564 5564 5565 5567 5568 5570 5572 5574 5577 5580 5583 5587 5591 5595
5626 5622 5618 5614 5611 5607 5603 5599 5596 5594 5590 5587 5583 5580 5577 5574 5571 5568 5565 5561 5558 5556 5554 5553 5551 5551 5551 5550 5551 5551 5552 5553 5554 5555 5557 5558 5560 5563 5566 5569 5573 5577 5581
5625 5621 5617 5613 5609 5604 5600 5595 5591 5588 5584 5580 5577 5574 5570 5567 5563 5559 5556 5553 5549 5546 5543 5542 5540 5539 5538 5538 5538 5538 5538 5539 5540 5541 5543 5544 5546 5548 5551 5554 5558 5562 5566
5623 5618 5614 5610 5605 5600 5595 5590 5585 5581 5576 5573 5569 5566 5563 5559 5555 5551 5547 5543 5540 5536 5533 5530 5529 5527 5526 5525 5525 5525 5525 5525 5526 5527 5528 5529 5531 5533 5535 5538 5542 5545 5550
5620 5615 5611 5606 5601 5596 5590 5585 5579 5574 5569 5565 5561 5558 5554 5551 5547 5542 5538 5533 5529 5525 5522 5518 5516 5514 5513 5511 5511 5510 5510 5511 5511 5511 5512 5513 5514 5516 5518 5521 5524 5528 5533
5616 5611 5607 5602 5596 5590 5585 5578 5573 5567 5562 5557 5553 5550 5545 5542 5538 5533 5529 5524 5519 5515 5511 5507 5503 5500 5498 5497 5496 5496 5496 5496 5496 5496 5496 5496 5497 5499 5501 5503 5506 5510 5515
5614 5607 5602 5597 5591 5586 5580 5573 5565 5558 5552 5545 5538 5534 5533 5532 5529 5525 5520 5515 5509 5504 5499 5495 5491 5488 5484 5482 5480 5480 5480 5480 5480 5480 5479 5479 5480 5481 5482 5485 5488 5492 5496
5612 5605 5598 5593 5586 5580 5573 5567 5558 5550 5543 5536 5527 5518 5516 5520 5522 5520 5513 5506 5501 5495 5490 5485 5480 5476 5472 5469 5466 5464 5463 5463 5463 5463 5463 5463 5463 5463 5465 5467 5469 5473 5477
5610 5603 5595 5587 5581 5575 5569 5563 5555 5545 5537 5530 5524 5513 5503 5505 5507 5508 5505 5500 5493 5486 5481 5475 5471 5466 5461 5458 5454 5451 5449 5448 5447 5447 5447 5447 5447 5447 5448 5449 5451 5454 5457
5605 5598 5591 5582 5575 5569 5563 5556 5549 5541 5530 5522 5514 5511 5505 5498 5490 5485 5487 5487 5483 5477 5471 5466 5461 5456 5451 5447 5443 5440 5437 5435 5434 5433 5432 5432 5432 5432 5432 5433 5434 5435 5437
5599 5592 5585 5577 5569 5562 5556 5548 5541 5533 5527 5519 5511 5502 5494 5487 5480 5470 5466 5469 5468 5466 5462 5457 5451 5446 5442 5437 5433 5429 5426 5424 5422 5420 5419 5418 5417 5416 5416 5415 5415 5415 5415
5592 5587 5578 5571 5563 5556 5549 5540 5532 5525 5519 5512 5504 5498 5491 5482 5477 5468 5461 5457 5454 5453 5450 5446 5441 5436 5431 5426 5422 5418 5415 5413 5410 5408 5406 5404 5402 5400 5399 5397 5395 5394 5393
5585 5581 5571 5564 5557 5549 5540 5532 5524 5518 5511 5504 5499 5493 5487 5483 5475 5467 5456 5448 5443 5441 5438 5435 5430 5424 5419 5415 5411 5407 5404 5401 5398 5395 5392 5390 5387 5384 5381 5378 5376 5373 5371
5579 5572 5565 5559 5551 5542 5533 5524 5517 5511 5504 5497 5491 5484 5478 5473 5465 5459 5450 5438 5428 5425 5424 5422 5418 5413 5408 5403 5399 5395 5392 5387 5384 5381 5377 5374 5371 5367 5364 5360 5356 5353 5349
5570 5564 5559 5552 5545 5536 5527 5517 5510 5504 5495 5489 5482 5474 5467 5462 5454 5447 5440 5431 5419 5410 5413 5412 5405 5402 5395 5390 5385 5381 5377 5373 5369 5366 5362 5359 5355 5351 5347 5342 5338 5333 5329
5562 5556 5550 5544 5538 5530 5521 5511 5504 5497 5487 5482 5473 5465 5458 5450 5442 5434 5427 5419 5411 5404 5400 5400 5394 5388 5381 5375 5370 5366 5363 5359 5355 5351 5347 5343 5338 5334 5329 5324 5319 5314 5309
5554 5548 5542 5536 5530 5523 5514 5505 5498 5488 5480 5473 5465 5457 5451 5440 5431 5423 5414 5407 5400 5392 5390 5390 5382 5375 5367 5362 5357 5352 5348 5344 5341 5336 5332 5327 5322 5317 5312 5307 5302 5296 5291
5547 5541 5535 5529 5523 5516 5507 5499 5491 5482 5474 5467 5459 5449 5442 5430 5421 5412 5403 5396 5389 5383 5377 5375 5371 5363 5356 5350 5344 5340 5336 5332 5328 5324 5319 5314 5309 5303 5298 5292 5286 5281 5276
5538 5532 5526 5521 5515 5508 5500 5493 5485 5476 5468 5460 5451 5441 5433 5421 5413 5403 5394 5386 5379 5372 5366 5362 5360 5352 5346 5338 5332 5329 5325 5321 5316 5311 5306 5301 5296 5290 5284 5278 5272 5267 5262
5528 5523 5518 5513 5506 5499 5491 5484 5475 5468 5460 5452 5443 5434 5424 5414 5405 5393 5384 5376 5368 5360 5354 5349 5347 5342 5336 5329 5320 5317 5315 5310 5305 5299 5294 5288 5283 5278 5272 5265 5260 5255 5250
5517 5512 5507 5502 5496 5488 5481 5472 5465 5458 5450 5443 5435 5426 5417 5406 5396 5385 5375 5367 5358 5350 5343 5338 5334 5329 5326 5318 5311 5306 5302 5300 5296 5286 5281 5278 5270 5267 5261 5254 5248 5243 5239
5504 5500 5495 5490 5485 5480 5474 5467 5458 5448 5441 5433 5426 5417 5407 5398 5390 5380 5372 5362 5351 5341 5334 5328 5324 5320 5317 5309 5301 5294 5289 5286 5288 5280 5268 5270 5259 5256 5251 5245 5240 5235 5232
5493 5489 5485 5480 5476 5471 5465 5459 5452 5443 5434 5425 5416 5406 5397 5390 5379 5369 5362 5356 5348 5341 5332 5321 5316 5313 5307 5300 5290 5284 5279 5275 5275 5268 5255 5261 5254 5248 5244 5238 5233 5229 5225
5483 5480 5476 5472 5467 5462 5456 5450 5443 5435 5427 5419 5408 5398 5388 5379 5370 5359 5350 5342 5336 5330 5323 5316 5310 5305 5296 5288 5279 5274 5270 5267 5267 5258 5245 5245 5247 5241 5238 5232 5225 5221 5218
5473 5469 5466 5461 5457 5453 5446 5440 5433 5424 5417 5410 5400 5390 5379 5370 5361 5351 5341 5334 5327 5321 5314 5308 5303 5296 5290 5283 5275 5267 5262 5257 5259 5257 5240 5230 5234 5231 5232 5227 5220 5214 5212
5462 5458 5455 5451 5447 5442 5436 5430 5422 5414 5406 5399 5391 5382 5373 5363 5353 5344 5336 5328 5321 5314 5305 5298 5293 5288 5282 5275 5268 5259 5252 5246 5245 5246 5237 5224 5222 5216 5223 5226 5216 5209 5204